Weather in Ognevskoye

Russia / Chelyabinsk Oblast     56°06′32″N   61°31′09″E
temp.,
°C
wind,
m/s
gust,
m/s
humid.,
%
clouds,
%
prec.,
mm/h
press.,
hPa
HPBL,
m
16 may, sun
sun1623:00+21wnw4115054 0.0 1020245
02:00+19wnw365938 0.0 102090
05:00+18w411598 0.0 1020191
08:00+24wnw5114713 0.0 1020379
11:00+29wnw573099 0.0 10191193
14:00+32w581875 0.0 10193807
17:00+31w682073 0.0 10193479
20:00+26w410325 0.0 1018246
17 may, mon
mon1723:00+21w49395 0.0 1018129
02:00+19w394761 0.0 1019131
05:00+18w38525 0.0 1019116
08:00+24w48400 0.0 1019268
11:00+29w69283 0.0 10182254
14:00+31w79206 0.0 10173879
17:00+31wnw692297 0.0 10163851
20:00+25wnw48365 0.0 1016287
18 may, tue
tue1823:00+21w412477 0.0 1016255
02:00+20w5125486 0.0 1015298
05:00+18w41065100 0.0 1016261
08:00+21wnw69540 0.0 1015572
11:00+25nw68330 0.0 10152303
14:00+27nw692870 0.0 10143254
17:00+22n89455 0.0 10161576
20:00+15nne711620 0.0 1020881
19 may, wed
wed1923:00+11nne6117541 0.0 1023801
02:00+11ne597144 0.0 1024809
05:00+8nne38844 0.0 1026255
08:00+12ne4657100 0.0 1026802
11:00+16ene4541100 0.0 10261153
14:00+19ene34345 0.0 10251400
17:00+20e22325 0.0 10241581
20:00+17se22450 0.0 102416
20 may, thu
thu2023:00+13ssw22535 0.0 102511
02:00+11sw22575 0.0 102510
05:00+10wsw22635 0.0 102527
08:00+16sw35485 0.0 1025321
11:00+22sw34325 0.0 10241191
14:00+25sw33240 0.0 10221785
17:00+26wsw23210 0.0 10211956
20:00+22ssw33360 0.0 102037